Motorcycle insurance for 18yr old first vehicle(sportbike)?

ShermanFriedman7731 | 2022.04.22 07:36 | 조회 7
Simply how much can I be prepared to get within my car crash negotiation?
"I am contemplating building a car from your ground-up like a project. I've pointed out that you will find equivalent automobiles which are lovers"I will turn 22 in two to three weeks and that I still don't learn how to push. Nobody ever taught me or had enough time to show me but I must say I need to get out and start learning about achieving this"I've full coverage insurance on my 2005 Honda civic every half a year and I am spending somewhat over $850
twitter facebook me2day 요즘
1,427,870개(3432/71394페이지)
LECTURE
번호 제목 글쓴이 조회 날짜
1359250 A Beginner's Tutorial To Bookkeeping GundersenRoberts5149 7 2022.04.22 08:00
1359249 Langkah Bermain dan Daftar di Agen Sabun KondrupBendsen1572 6 2022.04.22 08:00
1359248 Upholstery Cleaning Keeps Fabrics Trying MurdockGoldstein2706 25 2022.04.22 08:00
1359247 Pemasti Keberhasilan Betting Judi Sabung HoffmanTimm0674 4 2022.04.22 08:00
1359246 Poker reward Codes on-line To Make Your ShahTerkelsen3565 4 2022.04.22 07:59
1359245 Umowa Najmu Mieszkania - Wzór PDF Umowy BradfordCarlson7026 9 2022.04.22 07:59
1359244 How To Make Easy Money Betting Online On GarciaMangum9103 6 2022.04.22 07:59
1359243 What Can Instagramm Train You About Mine KahnHolst6640 33 2022.04.22 07:59
1359242 پمپ وکیوم چیست و چه کاربردی دارد؟ GuyTimm3318 8 2022.04.22 07:59
1359241 200 Event Catering Ideas 2019 Version BarberBoisen5506 8 2022.04.22 07:59
1359240 KEPASTIAN MUTLAK YANG Menciptakan KAMU M PereiraConrad1667 5 2022.04.22 07:59
1359239 Break Even Evaluation SanderKusk5758 10 2022.04.22 07:59
1359238 Directions For Online Visa Software Form TerpMartens2858 9 2022.04.22 07:59
1359237 Mengakui Aturan Sosiopat DALAM BERMAIN P WindFrye6418 5 2022.04.22 07:59
1359236 Upgrade To Windows 7 With Sccm, The Simp PikeSommer7104 6 2022.04.22 07:58
1359235 Using Blogs For Your Network Marketing B McphersonBredahl4415 10 2022.04.22 07:58
1359234 Easy Tips About Choosing Great Web Hosti KockMedlin6894 11 2022.04.22 07:58
1359233 What We Can Learn From taking Part In Ca BrunSummers1156 9 2022.04.22 07:58
1359232 How Drugs Profits Using A Commission Mai EnnisMichael4541 13 2022.04.22 07:58
1359231 Do You Possess Creative Skills? Look At 사진 VittrupMcElroy3713 9 2022.04.22 07:57